Starlink 31407

operational
NORAD ID: 59250 Int'l Des: 2024-049 Owner: SPXS Country: US Constellation: starlink
LEOCIRCULAR

About Starlink 31407

Description loading...

Live Position

Loading 3D Globe...

Upcoming Passes

Altitude History

Altitude vs Time

uPlot chart will show altitude changes over time

Two-Line Element Set

1 59250U 24049V 25302.64065240 .00000612 00000-0 31755-4 0 9993
2 59250 43.0040 152.3993 0001841 262.2977 97.7666 15.27581766 92487
Epoch: Oct 29, 2025 • Age: 21 hours

Current Status

Altitude 482.4 km
Velocity 7.63 km/s
Sub-Earth Point 6.15°N, 93.93°E
Launch Date Mar 16, 2024
Age 1.6 years
Type internet

Technical Details

Classification Payload
Mass 730.00 kg
Dry Mass 700.00 kg
Total Mass 730.00 kg
Length 0.30 m
Diameter 4.10 m
Span 29.00 m
Shape Box + pan
Manufacturer SPXS
Bus Type Starlink V2M
Phase Status In Orbit
Owner/State SPXS/US

Large Constellations

Loading constellations...